Location: Arthez
(43.0833°N, 0.2500°W)
Time: 08:18:48
(UTC+00:00)

H-2A R/B - Pass Details

Date: 23 October 2021
Orbit: 528 x 650 km, 98.3° (Epoch: 02 December)

Event Time Altitude Azimuth Distance (km) Brightness Sun altitude
Rises 18:09:26 0° 149° (SSE) 2,898 5.7 -12.3°
Reaches altitude 10° 18:11:44 10° 142° (SE) 1,978 4.8 -12.7°
Maximum altitude 18:15:48 43° 71° (ENE) 853 2.8 -13.5°
Drops below altitude 10° 18:19:45 10° 0° (N) 1,922 5.1 -14.2°
Sets 18:21:56 0° 354° (N) 2,806 6.0 -14.6°
